TOURFACTS.DK  
Stats and Facts from Tour de France.

Tour de France 2019 starts in 349 days
  Riders   Stages   Teams   Summits   Yearly  


 
Search by year

After 2018 - Stage 13:
 15000 starters.
  5163 different riders.
  639 teams.
  2245 stages.
  456 restdays.
  441769.60 km.
  5677 abandonnees.


Top 3
GC
Christopher Froome86:20:55
Rigoberto Urán86:21:49
Romain Bardet86:23:15
Climb
Warren Barguil169 pt.
Primoz Roglic80 pt.
Thomas De Gendt64 pt.
Sprint
Michael Matthews359 pt.
André Greipel234 pt.
Edvald Boasson Hagen220 pt.
Youth
Simon Yates86:27:09
Louis Meintjes86:29:15
Emanuel Buchmann86:54:16
Facts from Tour de France 2013
  |   Stages.  |   Stage winners.  |   Days in yellow  |   Average speed.  |   Route.  |   Teams.  |   All riders.  |   Rookies.  |  

  |   Withdrawls.  |   GC.  |   Polka  |   Green  |   White  |   Summits. (In tour)  |   Miscellaneous.  |  

Stage 19 on July 19th. 2013
         Owning:    Christopher Froome    
Pick a stage:  1 2 3 4 5 6 7 8 9 10 11 12 13 14 15 16 17 18 19 20 21
From: Bourg-d´Oisans    To: Le Grand-BornandDist:204.00 km.
Cat: HCol du GlandonCANRyder Hesjedal
25 points
 
Cat: HCol de la MadeleineFRAPierre Rolland
25 points
 
Cat: 2Col de TamiéFRAPierre Rolland
5 points
 
Cat: 1Col de l'ÉpineFRAPierre Rolland
10 points
 
Cat: 1Col de la Croix FryPORRui Costa
10 points
 

Average speed for all riders in stage:  32,076 km./hr.
    Place:Name:Team:Time:Km/h:
PORRui CostaESPMovistar Team05:59:01  +  00:00:00=34,093 
GERAndréas KlödenLUXRadioShack Leopard05:59:49  +  00:00:48=34,017 
BELJan BakelantsLUXRadioShack Leopard06:00:45  +  00:01:44=33,929 
4 FRAAlexandre GeniezFRAFDJ.fr06:00:53  +  00:01:52=33,917 
5 ESPDaniel NavarroFRACofidis – Solutions Crédits06:00:56  +  00:01:55=33,912 
6 BELBart De ClercqBELLotto-Belisol Team06:00:59  +  00:01:58=33,907 
7 NEDRobert GesinkNLDBelkin Pro Cycling06:01:04  +  00:02:03=33,900 
8 ITAAlessandro De MarchiITACannondale Pro Cycling06:01:06  +  00:02:05=33,896 
9 ESPMikel NieveESPEuskaltel - Euskadi06:01:17  +  00:02:16=33,879 
10 ESPRubén PlazaESPMovistar Team06:01:45  +  00:02:44=33,836 
11 ESPJesus  HernandezDNKTeam Saxo-Tinkoff06:01:47  +  00:02:46=33,832 
12 FRARomain BardetFRAAg2r La Mondiale06:01:49  +  00:02:48=33,829 
13 NEDTom DumoulinNLDArgos–Shimano06:02:57  +  00:03:56=33,724 
14 GERSimon GeschkeNLDArgos–Shimano06:03:53  +  00:04:52=33,637 
15 FRAAmaël MoinardUSABMC Racing Team06:05:42  +  00:06:41=33,470 
16 FRAPierre RollandFRATeam Europcar06:05:42  +  00:06:41=33,470 
17 COLJosé SerpaITALampre-Merida06:07:16  +  00:08:15=33,327 
18 ESPAlejandro ValverdeESPMovistar Team06:07:41  +  00:08:40=33,290 
19 FRAJohn GadretFRAAg2r La Mondiale06:07:41  +  00:08:40=33,290 
20 SUIJakob FuglsangKAZAstana Pro Team06:07:41  +  00:08:40=33,290 
21 ESPJoaquim RodriguezRUSTeam Katusha06:07:41  +  00:08:40=33,290 
22 COLNairo QuintanaESPMovistar Team06:07:41  +  00:08:40=33,290 
23 ESPAlberto ContadorDNKTeam Saxo-Tinkoff06:07:41  +  00:08:40=33,290 
24 CZERoman KreuzigerDNKTeam Saxo-Tinkoff06:07:41  +  00:08:40=33,290 
25 KENChristopher FroomeGBRSky Procycling06:07:41  +  00:08:40=33,290 
26 USAAndrew TalanskyUSAGarmin Sharp06:07:41  +  00:08:40=33,290 
27 NEDBauke MollemaNLDBelkin Pro Cycling06:07:41  +  00:08:40=33,290 
28 BELMaxime MonfortLUXRadioShack Leopard06:07:45  +  00:08:44=33,283 
29 ESPJon Izaguirre InsaustiESPEuskaltel - Euskadi06:07:45  +  00:08:44=33,283 
30 ESPIgor AntonESPEuskaltel - Euskadi06:07:45  +  00:08:44=33,283 
31 FRAArnold JeannessonFRAFDJ.fr06:07:49  +  00:08:48=33,277 
32 AUSRichie PorteGBRSky Procycling06:07:52  +  00:08:51=33,273 
33 ESPDaniel MorenoRUSTeam Katusha06:07:58  +  00:08:57=33,264 
34 FRAJérôme CoppelFRACofidis – Solutions Crédits06:08:16  +  00:09:15=33,237 
35 NEDWout PoelsNLDVacansoleil - DCM06:09:11  +  00:10:10=33,154 
36 FRAJulien SimonFRASojasun06:09:11  +  00:10:10=33,154 
37 POLMichal KwiatkowskiBELOmega Pharma – Quick Step06:09:11  +  00:10:10=33,154 
38 FRAHubert DupontFRAAg2r La Mondiale06:09:11  +  00:10:10=33,154 
39 AUSSimon ClarkeAUSOrica - GreenEDGE06:09:11  +  00:10:10=33,154 
40 ESPEgoitz GarciaFRACofidis – Solutions Crédits06:09:11  +  00:10:10=33,154 
41 NEDLaurens ten DamNLDBelkin Pro Cycling06:09:11  +  00:10:10=33,154 
42 ESPJosé Joaquin RojasESPMovistar Team06:09:14  +  00:10:13=33,150 
43 SVKPeter VelitsBELOmega Pharma – Quick Step06:09:32  +  00:10:31=33,123 
44 RUSYury TrofimovRUSTeam Katusha06:09:35  +  00:10:34=33,118 
45 FRAGuillaume LevarletFRACofidis – Solutions Crédits06:09:41  +  00:10:40=33,109 
46 ITADavide MalacarneFRATeam Europcar06:11:50  +  00:12:49=32,918 
47 FRACyril GautierFRATeam Europcar06:12:17  +  00:13:16=32,878 
48 AUSMichael RogersDNKTeam Saxo-Tinkoff06:12:19  +  00:13:18=32,875 
49 FRABrice FeilluFRASojasun06:12:38  +  00:13:37=32,847 
50 FRAPierrick FédrigoFRAFDJ.fr06:13:08  +  00:14:07=32,803 
51 FRATony GallopinLUXRadioShack Leopard06:13:08  +  00:14:07=32,803 
52 ESPHaimar ZubeldiaLUXRadioShack Leopard06:14:30  +  00:15:29=32,684 
53 LUXAndy SchleckLUXRadioShack Leopard06:14:30  +  00:15:29=32,684 
54 UZBSergey LagutinNLDVacansoleil - DCM06:14:30  +  00:15:29=32,684 
55 CRCAndrey AmadorESPMovistar Team06:18:06  +  00:19:05=32,372 
56 ESPJonathan CastroviejoESPMovistar Team06:18:06  +  00:19:05=32,372 
57 USATom DanielsonUSAGarmin Sharp06:18:06  +  00:19:05=32,372 
58 FRARomain SicardESPEuskaltel - Euskadi06:18:28  +  00:19:27=32,341 
59 FRAThomas VoecklerFRATeam Europcar06:18:28  +  00:19:27=32,341 
60 FRASylvain ChavanelBELOmega Pharma – Quick Step06:19:39  +  00:20:38=32,240 
61 ARGJuan Antonio FlechaNLDVacansoleil - DCM06:22:51  +  00:23:50=31,971 
62 ESPDavid LopezGBRSky Procycling06:22:51  +  00:23:50=31,971 
63 GERMarcus BurghardtUSABMC Racing Team06:22:51  +  00:23:50=31,971 
64 ITADamiano CunegoITALampre-Merida06:22:51  +  00:23:50=31,971 
65 FRAAnthony DelaplaceFRASojasun06:22:51  +  00:23:50=31,971 
66 ESPImanol ErvitiESPMovistar Team06:22:51  +  00:23:50=31,971 
67 NORLars Petter NordhaugNLDBelkin Pro Cycling06:22:51  +  00:23:50=31,971 
68 LUXLaurent DidierLUXRadioShack Leopard06:22:51  +  00:23:50=31,971 
69 GERJens VoigtLUXRadioShack Leopard06:22:51  +  00:23:50=31,971 
70 FRANicolas RocheDNKTeam Saxo-Tinkoff06:22:51  +  00:23:50=31,971 
71 ITAFabio SabatiniITACannondale Pro Cycling06:26:20  +  00:27:19=31,682 
72 SLOKristjan KorenITACannondale Pro Cycling06:26:20  +  00:27:19=31,682 
73 BELThomas De GendtNLDVacansoleil - DCM06:26:20  +  00:27:19=31,682 
74 CANDavid VeilleuxFRATeam Europcar06:26:20  +  00:27:19=31,682 
75 NEDJohnny HoogerlandNLDVacansoleil - DCM06:26:20  +  00:27:19=31,682 
76 GERTony MartinBELOmega Pharma – Quick Step06:26:20  +  00:27:19=31,682 
77 ITAAlan MarangoniITACannondale Pro Cycling06:26:20  +  00:27:19=31,682 
78 NEDKoen De KortNLDArgos–Shimano06:26:20  +  00:27:19=31,682 
79 ITAMoreno MoserITACannondale Pro Cycling06:26:20  +  00:27:19=31,682 
80 ESPMikel AstarlozaESPEuskaltel - Euskadi06:26:20  +  00:27:19=31,682 
81 ESPLuis Angel MateFRACofidis – Solutions Crédits06:26:20  +  00:27:19=31,682 
82 AUSSimon GerransAUSOrica - GreenEDGE06:26:20  +  00:27:19=31,682 
83 ESPJuan José OrozESPEuskaltel - Euskadi06:26:20  +  00:27:19=31,682 
84 AUSBrett LancasterAUSOrica - GreenEDGE06:26:20  +  00:27:19=31,682 
85 USABrent BookwalterUSABMC Racing Team06:26:20  +  00:27:19=31,682 
86 ITAManuel QuinziatoUSABMC Racing Team06:26:20  +  00:27:19=31,682 
87 ENGIan StannardGBRSky Procycling06:26:20  +  00:27:19=31,682 
88 ESPMarkel IrizarLUXRadioShack Leopard06:26:20  +  00:27:19=31,682 
89 AUSMatthew GossAUSOrica - GreenEDGE06:26:20  +  00:27:19=31,682 
90 ESPRuben PerezESPEuskaltel - Euskadi06:26:20  +  00:27:19=31,682 
91 RUSEduard VorganovRUSTeam Katusha06:26:20  +  00:27:19=31,682 
92 USATejay Van GarderenUSABMC Racing Team06:26:20  +  00:27:19=31,682 
93 BRAMurilo Antonio FischerFRAFDJ.fr06:26:20  +  00:27:19=31,682 
94 SUISteve MorabitoUSABMC Racing Team06:26:20  +  00:27:19=31,682 
95 POLPrzemyslaw NiemiecITALampre-Merida06:26:20  +  00:27:19=31,682 
96 ITAManuele MoriITALampre-Merida06:26:20  +  00:27:19=31,682 
97 RSADaryl ImpeyAUSOrica - GreenEDGE06:26:20  +  00:27:19=31,682 
98 WALGeraint ThomasGBRSky Procycling06:26:20  +  00:27:19=31,682 
99 BLRKanstantin SivtsovGBRSky Procycling06:26:20  +  00:27:19=31,682 
100 AUSAdam HansenBELLotto-Belisol Team06:26:20  +  00:27:19=31,682 
101 FRASébastien MinardFRAAg2r La Mondiale06:26:20  +  00:27:19=31,682 
102 FRAJulien El FarèsFRASojasun06:26:20  +  00:27:19=31,682 
103 BELPhilippe GilbertUSABMC Racing Team06:26:20  +  00:27:19=31,682 
104 SVKPeter SaganITACannondale Pro Cycling06:26:20  +  00:27:19=31,682 
105 FRARudy MolardFRACofidis – Solutions Crédits06:26:20  +  00:27:19=31,682 
106 FRAMaxime MederelFRASojasun06:26:20  +  00:27:19=31,682 
107 POLMaciej BodnarITACannondale Pro Cycling06:26:20  +  00:27:19=31,682 
108 ITAMatteo TosattoDNKTeam Saxo-Tinkoff06:26:20  +  00:27:19=31,682 
109 FRAJonathan HivertFRASojasun06:26:20  +  00:27:19=31,682 
110 FRAJérôme CousinFRATeam Europcar06:26:20  +  00:27:19=31,682 
111 NEDTom LeezerNLDBelkin Pro Cycling06:26:20  +  00:27:19=31,682 
112 FRAAlexis VuillermozFRASojasun06:26:33  +  00:27:32=31,665 
113 FRAJérémy RoyFRAFDJ.fr06:26:33  +  00:27:32=31,665 
114 FRAKévin RezaFRATeam Europcar06:26:33  +  00:27:32=31,665 
115 IOMPeter KennaughGBRSky Procycling06:26:33  +  00:27:32=31,665 
116 ITADavide CimolaiITALampre-Merida06:26:37  +  00:27:36=31,659 
117 URSGatis SmukulisRUSTeam Katusha06:26:38  +  00:27:37=31,658 
118 DENLars BakBELLotto-Belisol Team06:26:42  +  00:27:41=31,652 
119 GERAndré GreipelBELLotto-Belisol Team06:26:42  +  00:27:41=31,652 
120 BELJürgen RoelandtsBELLotto-Belisol Team06:26:42  +  00:27:41=31,652 
121 NEDRoy CurversNLDArgos–Shimano06:26:42  +  00:27:41=31,652 
122 NEDBoy van PoppelNLDVacansoleil - DCM06:26:42  +  00:27:41=31,652 
123 ENGDaniel MartinUSAGarmin Sharp06:26:42  +  00:27:41=31,652 
124 FRAJean-Marc MarinoFRASojasun06:26:42  +  00:27:41=31,652 
125 SUIMichael AlbasiniAUSOrica - GreenEDGE06:28:15  +  00:29:14=31,526 
126 ITAFrancesco GavazziKAZAstana Pro Team06:28:15  +  00:29:14=31,526 
127 ITAElia FavilliITALampre-Merida06:28:15  +  00:29:14=31,526 
128 AUSCameron MeyerAUSOrica - GreenEDGE06:28:15  +  00:29:14=31,526 
129 FRACyril LemoineFRASojasun06:28:15  +  00:29:14=31,526 
130 NEDLars BoomNLDBelkin Pro Cycling06:28:18  +  00:29:17=31,522 
131 BLRAliaksandr KuchynskiRUSTeam Katusha06:28:53  +  00:29:52=31,475 
132 BELSep VanmarckeNLDBelkin Pro Cycling06:28:53  +  00:29:52=31,475 
133 JPNYukiya ArashiroFRATeam Europcar06:28:53  +  00:29:52=31,475 
134 KAZDmitriy MuravyevKAZAstana Pro Team06:29:28  +  00:30:27=31,428 
135 MLTDavid MillarUSAGarmin Sharp06:30:35  +  00:31:34=31,338 
136 CANRyder HesjedalUSAGarmin Sharp06:30:35  +  00:31:34=31,338 
137 URSRein TaaramäeFRACofidis – Solutions Crédits06:32:31  +  00:33:30=31,183 
138 GERJohannes FröhlingerNLDArgos–Shimano06:34:25  +  00:35:24=31,033 
139 GERJohn DegenkolbNLDArgos–Shimano06:34:25  +  00:35:24=31,033 
140 BELFrederik WillemsBELLotto-Belisol Team06:34:25  +  00:35:24=31,033 
141 NZLGregory HendersonBELLotto-Belisol Team06:34:25  +  00:35:24=31,033 
142 FRAJérôme PineauBELOmega Pharma – Quick Step06:34:25  +  00:35:24=31,033 
143 NEDNiki TerpstraBELOmega Pharma – Quick Step06:34:25  +  00:35:24=31,033 
144 ESPJuan LobatoESPEuskaltel - Euskadi06:34:25  +  00:35:24=31,033 
145 NEDAlbert TimmerNLDArgos–Shimano06:34:25  +  00:35:24=31,033 
146 GERMarcel KittelNLDArgos–Shimano06:34:25  +  00:35:24=31,033 
147 IOMMark CavendishBELOmega Pharma – Quick Step06:34:25  +  00:35:24=31,033 
148 BELGert SteegmansBELOmega Pharma – Quick Step06:34:25  +  00:35:24=31,033 
149 BELMaarten WynantsNLDBelkin Pro Cycling06:34:25  +  00:35:24=31,033 
150 FRAYohann GèneFRATeam Europcar06:34:25  +  00:35:24=31,033 
151 ITAEnrico GasparottoKAZAstana Pro Team06:34:25  +  00:35:24=31,033 
152 DENBrian VandborgITACannondale Pro Cycling06:34:25  +  00:35:24=31,033 
153 NORAlexander KristoffRUSTeam Katusha06:34:25  +  00:35:24=31,033 
154 NEDLieuwe WestraNLDVacansoleil - DCM06:34:25  +  00:35:24=31,033 
155 AUSCadel EvansUSABMC Racing Team06:34:25  +  00:35:24=31,033 
156 ITADaniele BennatiDNKTeam Saxo-Tinkoff06:34:25  +  00:35:24=31,033 
157 PORSergio PaulinhoDNKTeam Saxo-Tinkoff06:34:25  +  00:35:24=31,033 
158 RUSPavel BruttRUSTeam Katusha06:34:25  +  00:35:24=31,033 
159 URSRamunas NavardauskasUSAGarmin Sharp06:34:25  +  00:35:24=31,033 
160 NEDBram TankinkNLDBelkin Pro Cycling06:34:25  +  00:35:24=31,033 
161 FRASamuel DumoulinFRAAg2r La Mondiale06:34:25  +  00:35:24=31,033 
162 CANSvein TuftAUSOrica - GreenEDGE06:34:25  +  00:35:24=31,033 
163 ESPAlberto LosadaRUSTeam Katusha06:34:25  +  00:35:24=31,033 
164 AUSStuart O'GradyAUSOrica - GreenEDGE06:34:25  +  00:35:24=31,033 
165 ITARoberto FerrariITALampre-Merida06:34:25  +  00:35:24=31,033 
166 FRABlel KadriFRAAg2r La Mondiale06:34:25  +  00:35:24=31,033 
167 FRAChristophe RiblonFRAAg2r La Mondiale06:34:25  +  00:35:24=31,033 
168 ITAMatteo TrentinBELOmega Pharma – Quick Step06:34:25  +  00:35:24=31,033 
169 FRAArthur VichotFRAFDJ.fr06:34:25  +  00:35:24=31,033 
170 KAZAssan BazayevKAZAstana Pro Team06:34:25  +  00:35:24=31,033 

Withdrawls: 5
 
Rider
Team
Reason
28  GERMarcel SiebergBELLotto-Belisol TeamDid not finish
135  FRAChristophe Le MevelFRACofidis – Solutions CréditsDid not finish
172  NZLJack BauerUSAGarmin SharpDid not finish
199  NEDTom VeelersNLDArgos–ShimanoDid not finish
202  BELKris BoeckmansNLDVacansoleil - DCMDid not finish

Todays birthdays.

1889  Arthur Godart
1901  Félix Baud
1904  Fernand Fayolle
1921  Pietro Giudici
1932  Félix Le Buhotel
1932  Piet Van Den Brekel
1954  Hennie Stamsnijder
1965  Francis Moreau
1980  Andrey Kashechkin
1981  Stefan Schumacher




Visits: